Flag for Japan Weather past 2 weeks in Hamamatsu, Japan

Now
78 °F

Fog.


Feels Like: 82 °F
Forecast: 73 / 86 °F
Wind: 6 mph from Southwest

Location: Omaezaki

Current Time: Aug 1, 2014 at 11:29:14 PM

Latest Report: Aug 1, 2014 at 10:00 PM


Visibility: 1 mi

Pressure: 29.90 "Hg

Humidity: 100%

Dew point: 78 °F

Location of HamamatsuLocation

Historic Weather in Hamamatsu — Graph

°F

Hamamatsu temperature yesterday

Maximum temperature yesterday: 84 °F (at 3:00 PM)
Minimum temperature yesterday: 76 °F (at 5:00 AM)
Average temperature yesterday: 80 °F

Past Weeks' High & Low Weather Summary

 TemperatureHumidityPressure
High85 °F (Jul 24, 7:00 PM)100% (Jul 17, 10:00 PM)30.04 "Hg (Jul 17, 10:00 PM)
Low69 °F (Jul 19, 3:00 PM)62% (Jul 28, 12:00 AM)29.63 "Hg (Jul 24, 3:00 PM)
Average78 °F89%29.86 "Hg
* Reported Jul 17 10:00 PM — Aug 1 10:00 PM, Hamamatsu, Weather by CustomWeather, © 2014

Note: Actual official high and low records may vary slightly from our data, if they occured in-between our weather recording intervals... More about our weather records

Advertising

Hamamatsu weather history for previous 24 hours

 ConditionsComfort  
Time TempWeatherWind HumidityBarometerVisibility
10:00 PM
Aug 1
78 °FFog.6 mph100%29.90 "Hg1 mi
9:00 PM79 °FFog.6 mph100%29.91 "Hg1 mi
8:00 PM79 °FFog.6 mph100%29.89 "Hg1 mi
7:00 PM79 °FFog.9 mph100%29.87 "Hg2 mi
6:00 PM80 °FFog.12 mph100%29.86 "Hg3 mi
5:00 PM81 °FFog.7 mph97%29.85 "Hg3 mi
4:00 PM82 °FFog.8 mph93%29.85 "Hg4 mi
3:00 PM82 °FFog.12 mph92%29.86 "Hg5 mi
2:00 PM83 °FWarm.10 mph86%29.87 "Hg7 mi
1:00 PM83 °FWarm.10 mph87%29.88 "Hg6 mi
12:00 PM83 °FWarm.8 mph85%29.90 "Hg7 mi
11:00 AM85 °FFog.8 mph82%29.91 "Hg6 mi
10:00 AM82 °FFog.7 mph89%29.92 "Hg4 mi
9:00 AM82 °FWarm.7 mph88%29.92 "Hg7 mi
8:00 AM82 °FFog.6 mph90%29.92 "Hg3 mi
7:00 AM78 °FFog.2 mph99%29.92 "Hg3 mi
6:00 AM77 °FFog.3 mph100%29.92 "Hg2 mi
5:00 AM76 °FMild.5 mph100%29.92 "Hg1 mi
4:00 AM76 °FDuststorm.3 mph100%29.90 "Hg1 mi
3:00 AM77 °FFog.3 mph99%29.90 "Hg2 mi
2:00 AM77 °FWarm.2 mph99%29.90 "Hg11 mi
1:00 AM77 °FFog.3 mph100%29.91 "Hg4 mi
12:00 AM77 °FFog.6 mph100%29.92 "Hg2 mi
11:00 PM
Jul 31
78 °FWarm.9 mph100%29.93 "Hg7 mi
Weather by CustomWeather, © 2014

See weather overviewHow to use our weather pages